This is the latest recevied weather packets stored in our database for station/object KO4T-4. If no packets are shown the sender has not sent any weather packets the latest 10 day(s).
| Time | Temp. | Humidity | Pressure | Rain* | Wind** | Luminosity | Snow |
|---|---|---|---|---|---|---|---|
| 1777592404 | 19.44° C | 37% | 1011.4 hPa | 0 mm | - | - | - |
| 1777592103 | 19.44° C | 36% | 1011.4 hPa | 0 mm | - | - | - |
| 1777591804 | 19.44° C | 37% | 1011.4 hPa | 0 mm | - | - | - |
| 1777591503 | 19.44° C | 36% | 1011.4 hPa | 0 mm | - | - | - |
| 1777591204 | 20° C | 36% | 1011.3 hPa | 0 mm | - | - | - |
| 1777590904 | 20° C | 37% | 1011.2 hPa | 0 mm | - | - | - |
| 1777590604 | 20° C | 38% | 1011.1 hPa | 0 mm | - | - | - |
| 1777590303 | 20° C | 42% | 1011.1 hPa | 0 mm | - | - | - |
| 1777590004 | 20° C | 42% | 1011.2 hPa | 0 mm | - | - | - |
| 1777589704 | 20.56° C | 41% | 1011 hPa | 0 mm | - | - | - |
| 1777589403 | 20.56° C | 41% | 1010.9 hPa | 0 mm | - | - | - |
| 1777589104 | 20.56° C | 39% | 1010.8 hPa | 0 mm | - | - | - |
| 1777588804 | 20.56° C | 41% | 1010.9 hPa | 0 mm | - | - | - |
| 1777588503 | 20.56° C | 40% | 1010.8 hPa | 0 mm | - | - | - |
| 1777588204 | 21.11° C | 39% | 1010.7 hPa | 0 mm | - | - | - |
| 1777587904 | 21.11° C | 37% | 1010.7 hPa | 0 mm | - | - | - |
| 1777587603 | 21.11° C | 39% | 1010.7 hPa | 0 mm | - | - | - |
| 1777587304 | 21.11° C | 37% | 1010.7 hPa | 0 mm | - | - | - |
| 1777587004 | 21.67° C | 36% | 1010.6 hPa | 0 mm | - | - | - |
| 1777586703 | 21.67° C | 37% | 1010.5 hPa | 0 mm | - | - | - |
| 1777586404 | 21.67° C | 36% | 1010.6 hPa | 0 mm | - | - | - |
| 1777586104 | 21.67° C | 37% | 1010.3 hPa | 0 mm | - | - | - |
| 1777585803 | 21.67° C | 37% | 1010.2 hPa | 0 mm | - | - | - |
| 1777585504 | 21.67° C | 36% | 1010.2 hPa | 0 mm | - | - | - |
| 1777585204 | 21.67° C | 36% | 1010.2 hPa | 0 mm | - | - | - |
* Rain latest hour (hover to see other rain measurements)
** Current wind speed in m/s (hover to see current wind gust speed)